| time (UTC) | temp F | wind direction | speed knots | gust knots | rain 1hr in | rain 24hr in | rain mn in | humidity % | barometer mb |
| 20260506044550 | 54 | 60 | 0.9 | 3.5 | 0.00 | 0.00 | 0.00 | 81 | 1003.5 |
| 20260506043041 | 55 | 47 | 0.9 | 4.3 | 0.00 | 0.00 | 0.00 | 81 | 1003.6 |
| 20260506041546 | 55 | 49 | 2.6 | 8.7 | 0.00 | 0.00 | 0.00 | 80 | 1003.5 |
| 20260506040047 | 55 | 54 | 0.9 | 4.3 | 0.00 | 0.00 | 0.00 | 80 | 1003.4 |
| 20260506034521 | 56 | 353 | 1.7 | 4.3 | 0.00 | 0.00 | 0.00 | 81 | 1003.5 |
| 20260506033015 | 56 | 42 | 0.9 | 3.5 | 0.00 | 0.00 | 0.00 | 82 | 1003.4 |
| 20260506031529 | 56 | 352 | 0.9 | 10.4 | 0.00 | 0.00 | 0.00 | 81 | 1003.1 |
| 20260506030055 | 57 | 347 | 4.3 | 11.3 | 0.00 | 0.00 | 0.00 | 81 | 1002.7 |
| 20260506024601 | 57 | 19 | 7.0 | 13.9 | 0.00 | 0.00 | 0.00 | 80 | 1002.6 |
| 20260506023056 | 58 | 54 | 5.2 | 13.9 | 0.00 | 0.00 | 0.00 | 80 | 1002.2 |
| 20260506021555 | 59 | 346 | 3.5 | 9.6 | 0.00 | 0.00 | 0.00 | 79 | 1001.6 |
| 20260506020032 | 60 | 349 | 7.8 | 13.0 | 0.00 | 0.00 | 0.00 | 77 | 1001.3 |
| 20260506014529 | 61 | 19 | 7.0 | 14.8 | 0.00 | 0.00 | 0.00 | 76 | 1000.8 |
| 20260506013016 | 62 | 351 | 6.1 | 13.0 | 0.00 | 0.00 | 0.00 | 75 | 1000.2 |
| 20260506011516 | 64 | 60 | 7.0 | 13.0 | 0.00 | 0.00 | 0.00 | 72 | 1000.0 |
| 20260506010058 | 67 | 358 | 6.1 | 16.5 | 0.00 | 0.00 | 0.00 | 69 | 999.7 |
| 20260506004548 | 68 | 7 | 7.0 | 11.3 | 0.00 | 0.00 | 0.00 | 65 | 999.2 |
| 20260506003043 | 70 | 18 | 4.3 | 13.9 | 0.00 | 0.00 | 0.00 | 64 | 998.8 |
| 20260506001545 | 70 | 13 | 3.5 | 11.3 | 0.00 | 0.00 | 0.00 | 63 | 998.8 |
| 20260506000033 | 71 | 10 | 6.1 | 12.2 | 0.00 | 0.00 | 0.00 | 61 | 998.6 |
| 20260505234539 | 71 | 349 | 6.1 | 14.8 | 0.00 | 0.00 | 0.00 | 62 | 999.0 |
| 20260505233043 | 71 | 349 | 7.8 | 13.0 | 0.00 | 0.00 | 0.00 | 61 | 998.9 |
| 20260505231553 | 72 | 8 | 6.1 | 15.6 | 0.00 | 0.00 | 0.00 | 61 | 998.8 |
| 20260505230033 | 73 | 356 | 7.8 | 15.6 | 0.00 | 0.00 | 0.00 | 61 | 998.7 |
| 20260505224532 | 73 | 23 | 7.8 | 13.9 | 0.00 | 0.00 | 0.00 | 61 | 998.4 |
| 20260505223039 | 73 | 8 | 7.8 | 15.6 | 0.00 | 0.00 | 0.00 | 62 | 998.2 |
| 20260505221537 | 74 | 15 | 6.1 | 13.0 | 0.00 | 0.00 | 0.00 | 59 | 998.1 |
| 20260505220019 | 75 | 23 | 7.0 | 15.6 | 0.00 | 0.00 | 0.00 | 59 | 998.2 |
| 20260505214527 | 76 | 34 | 7.8 | 13.0 | 0.00 | 0.00 | 0.00 | 60 | 998.4 |
| 20260505213026 | 77 | 343 | 7.0 | 12.2 | 0.00 | 0.00 | 0.00 | 60 | 998.1 |
| 20260505211527 | 78 | 13 | 7.8 | 13.0 | 0.00 | 0.00 | 0.00 | 60 | 997.9 |
| 20260505210014 | 78 | 351 | 6.1 | 12.2 | 0.00 | 0.00 | 0.00 | 58 | 997.9 |
| 20260505204511 | 79 | 10 | 7.8 | 13.9 | 0.00 | 0.00 | 0.00 | 58 | 998.0 |
| 20260505203015 | 80 | 32 | 7.0 | 11.3 | 0.00 | 0.00 | 0.00 | 57 | 998.2 |
| 20260505201517 | 80 | 345 | 8.7 | 14.8 | 0.00 | 0.00 | 0.00 | 61 | 998.1 |
| 20260505200003 | 80 | 7 | 7.0 | 14.8 | 0.00 | 0.00 | 0.00 | 60 | 998.2 |
| 20260505194507 | 80 | 341 | 7.8 | 13.9 | 0.00 | 0.00 | 0.00 | 59 | 998.1 |
| 20260505193010 | 82 | 359 | 7.8 | 13.0 | 0.00 | 0.00 | 0.00 | 51 | 997.9 |
| 20260505191511 | 81 | 3 | 6.1 | 14.8 | 0.00 | 0.00 | 0.00 | 51 | 998.2 |
| 20260505184600 | 82 | 360 | 8.7 | 15.6 | 0.00 | 0.00 | 0.00 | 44 | 998.0 |
| 20260505183102 | 83 | 338 | 8.7 | 17.4 | 0.00 | 0.00 | 0.00 | 40 | 998.0 |
| 20260505181502 | 85 | 300 | 4.3 | 10.4 | 0.00 | 0.00 | 0.00 | 48 | 997.8 |
| 20260505180042 | 84 | 303 | 4.3 | 8.7 | 0.00 | 0.00 | 0.00 | 51 | 997.7 |
| 20260505174543 | 84 | 282 | 2.6 | 9.6 | 0.00 | 0.00 | 0.00 | 55 | 997.5 |
| 20260505173139 | 83 | 237 | 4.3 | 11.3 | 0.00 | 0.00 | 0.00 | 61 | 997.5 |
| 20260505171539 | 82 | 237 | 3.5 | 10.4 | 0.00 | 0.00 | 0.00 | 63 | 997.4 |
| 20260505170019 | 81 | 252 | 2.6 | 10.4 | 0.00 | 0.00 | 0.00 | 68 | 997.5 |
| 20260505164516 | 81 | 257 | 4.3 | 7.8 | 0.00 | 0.00 | 0.00 | 66 | 997.4 |
| 20260505163012 | 80 | 222 | 2.6 | 7.8 | 0.00 | 0.00 | 0.00 | 70 | 997.3 |
| 20260505161507 | 79 | 245 | 3.5 | 9.6 | 0.00 | 0.00 | 0.00 | 70 | 997.2 |
| 20260505153052 | 78 | 259 | 3.5 | 13.9 | 0.00 | 0.00 | 0.00 | 71 | 996.9 |
| 20260505151551 | 77 | 213 | 3.5 | 12.2 | 0.00 | 0.00 | 0.00 | 72 | 996.8 |
| 20260505124516 | 70 | 223 | 4.3 | 7.8 | 0.00 | 0.00 | 0.00 | 82 | 996.1 |
| 20260505123021 | 70 | 233 | 3.5 | 8.7 | 0.00 | 0.00 | 0.00 | 82 | 995.9 |
| 20260505121523 | 70 | 227 | 4.3 | 10.4 | 0.00 | 0.00 | 0.00 | 82 | 995.9 |
| 20260505120007 | 70 | 266 | 5.2 | 11.3 | 0.00 | 0.00 | 0.00 | 82 | 995.8 |
| 20260505114505 | 70 | 238 | 5.2 | 9.6 | 0.00 | 0.00 | 0.00 | 81 | 995.7 |
| 20260505113007 | 70 | 243 | 4.3 | 7.8 | 0.00 | 0.00 | 0.00 | 81 | 995.7 |
| 20260505111512 | 71 | 209 | 3.5 | 10.4 | 0.00 | 0.00 | 0.00 | 81 | 995.5 |
| 20260505110116 | 70 | 188 | 3.5 | 9.6 | 0.00 | 0.00 | 0.00 | 80 | 995.5 |
| 20260505101503 | 71 | 148 | 5.2 | 13.0 | 0.00 | 0.00 | 0.00 | 80 | 995.3 |
| 20260505100051 | 71 | 232 | 4.3 | 10.4 | 0.00 | 0.00 | 0.00 | 80 | 995.4 |
| 20260505094551 | 71 | 222 | 5.2 | 13.0 | 0.00 | 0.00 | 0.00 | 80 | 995.2 |
| 20260505093049 | 71 | 214 | 6.1 | 12.2 | 0.00 | 0.00 | 0.00 | 79 | 995.4 |
| 20260505091548 | 71 | 249 | 5.2 | 12.2 | 0.00 | 0.00 | 0.00 | 79 | 995.4 |
| 20260505090036 | 72 | 221 | 4.3 | 13.0 | 0.00 | 0.00 | 0.00 | 78 | 995.7 |
| 20260505084541 | 72 | 149 | 5.2 | 11.3 | 0.00 | 0.00 | 0.00 | 78 | 995.7 |
| 20260505083045 | 72 | 229 | 7.0 | 13.9 | 0.00 | 0.00 | 0.00 | 77 | 995.7 |
| 20260505081550 | 73 | 217 | 5.2 | 13.0 | 0.00 | 0.00 | 0.00 | 76 | 995.8 |
| 20260505080023 | 73 | 240 | 5.2 | 15.6 | 0.00 | 0.00 | 0.00 | 76 | 995.8 |
| 20260505074516 | 73 | 186 | 6.1 | 13.9 | 0.00 | 0.00 | 0.00 | 76 | 996.1 |
| 20260505073014 | 73 | 232 | 6.1 | 13.0 | 0.00 | 0.00 | 0.00 | 75 | 996.3 |
| 20260505071539 | 73 | 250 | 4.3 | 12.2 | 0.00 | 0.00 | 0.00 | 75 | 996.3 |
| 20260505070113 | 74 | 212 | 6.1 | 13.9 | 0.00 | 0.00 | 0.00 | 75 | 996.7 |
| 20260505064504 | 74 | 264 | 5.2 | 13.0 | 0.00 | 0.00 | 0.00 | 74 | 996.8 |
| 20260505063104 | 74 | 245 | 4.3 | 13.0 | 0.00 | 0.00 | 0.00 | 74 | 997.1 |
| 20260505061510 | 74 | 248 | 5.2 | 9.6 | 0.00 | 0.00 | 0.00 | 73 | 997.2 |